[[{"header":{"parameterUnit":"m.s-1","parameterCategory":1,"la1":30.2992,"la2":30.254,"lo1":-89.0895,"lo2":-89.0443,"dy":0.0025,"dx":0.0025,"nx":19,"ny":19,"refTime":"2026-03-12T03:00:00:Z","depth":0,"parameterNumber":2,"parameterNumberName":"U-component_of_WINDS"},"data":[0,0,0,-0.9201,-0.92,-0.9176,-0.9176,-0.9151,-0.9151,0,0,0,0,0,0,0,0,0,0,0,-0.9211,-0.9211,-0.9201,-0.92,-0.9176,-0.9176,-0.9151,-0.9151,0,0,0,0,0,0,0,0,0,0,0,-0.9211,-0.9211,-0.9211,-0.92,-0.9176,-0.9176,-0.9151,-0.9167,0,0,0,0,0,0,0,0,0,0,-0.9189,-0.9202,-0.9211,-0.9211,-0.92,-0.9176,-0.9176,-0.9168,-0.9166,-0.9164,0,-0.9163,0,-0.9157,-0.9149,-0.9149,0,0,0,-0.9198,-0.9204,-0.9194,-0.9211,-0.92,-0.9176,-0.9186,-0.9167,-0.9165,-0.9162,-0.9163,-0.9162,-0.9156,-0.9149,-0.9149,-0.9147,-0.9147,0,0,-0.9199,-0.9208,-0.9196,-0.9193,-0.9197,-0.9187,-0.9186,-0.9166,-0.9167,-0.9163,-0.9161,-0.9156,-0.9149,-0.9149,-0.9146,-0.9147,0,0,0,-0.9204,-0.9209,-0.92,-0.9194,-0.919,-0.9186,-0.9185,-0.9168,-0.9164,-0.9161,-0.9156,-0.9149,-0.9149,-0.9146,-0.9146,-0.916,0,0,0,-0.9205,-0.9212,-0.9201,-0.9207,-0.919,-0.9178,-0.9188,-0.9166,-0.9163,-0.9156,-0.9149,-0.9149,-0.9146,-0.9146,-0.916,-0.9165,0,0,0,-0.9211,-0.9213,-0.9211,-0.9207,-0.9197,-0.9179,-0.9174,-0.9165,-0.916,-0.9149,-0.9149,-0.9146,-0.9146,-0.9159,-0.9164,-0.9167,0,0,0,-0.9221,-0.9223,-0.9211,-0.9213,-0.9197,-0.9188,-0.9174,-0.9166,-0.9158,-0.9149,-0.9146,-0.9146,-0.9159,-0.9163,-0.9166,-0.917,-0.9173,0,0,-0.9229,-0.9225,-0.9225,-0.9213,-0.9208,-0.9191,-0.9187,-0.9172,-0.9162,-0.9152,-0.9152,-0.916,-0.9164,-0.9166,-0.9186,-0.9188,0,0,0,-0.9231,-0.9231,-0.9227,-0.9221,-0.9209,-0.92,-0.9184,-0.9178,-0.9169,-0.9159,-0.9162,-0.9164,-0.9165,-0.9166,-0.9168,-0.9168,-0.9148,-0.9148,-0.9148,-0.9255,-0.9244,-0.9243,-0.9228,-0.9222,-0.9206,-0.92,-0.919,-0.9179,-0.918,-0.9177,-0.919,-0.9192,-0.9193,-0.9194,-0.9179,-0.9179,-0.9179,-0.9179,-0.9266,-0.9264,-0.9251,-0.9246,-0.9233,-0.9228,-0.9213,-0.9206,-0.92,-0.9192,-0.9192,-0.9183,-0.9196,-0.9196,-0.918,-0.918,-0.9179,-0.9179,-0.9179,-0.928,-0.9277,-0.9271,-0.9261,-0.9254,-0.924,-0.9234,-0.9224,-0.9213,-0.9214,-0.9209,-0.9208,-0.9206,-0.9212,-0.9212,-0.9212,-0.9213,-0.9213,-0.9213,-0.9297,-0.9289,-0.9286,-0.9275,-0.927,-0.9261,-0.9246,-0.924,-0.9231,-0.9224,-0.9224,-0.9213,-0.92,-0.9197,-0.9213,-0.9213,-0.9213,-0.9213,-0.9213,-0.9311,-0.9306,-0.9301,-0.9296,-0.9282,-0.9276,-0.9263,-0.9253,-0.9247,-0.9245,-0.9235,-0.9227,-0.9221,-0.922,-0.9217,-0.9237,-0.9237,-0.9237,-0.9237,-0.9322,-0.9318,-0.9311,-0.9303,-0.9295,-0.9282,-0.9277,-0.9266,-0.9254,-0.9249,-0.9245,-0.924,-0.9239,-0.9234,-0.9232,-0.9229,-0.9253,-0.9253,-0.9253,-0.9329,-0.9325,-0.9322,-0.931,-0.9299,-0.9289,-0.9284,-0.9276,-0.9261,-0.9253,-0.9245,-0.9245,-0.9237,-0.9236,-0.9226,-0.9223,-0.9217,0,0]},{"header":{"parameterUnit":"m.s-1","parameterCategory":1,"la1":30.2992,"la2":30.254,"lo1":-89.0895,"lo2":-89.0443,"dy":0.0025,"dx":0.0025,"nx":19,"ny":19,"refTime":"2026-03-12T03:00:00:Z","depth":0,"parameterNumber":3,"parameterNumberName":"V-component_of_WINDS"},"data":[0,0,0,1.7883,1.7883,1.7877,1.7877,1.7863,1.7863,0,0,0,0,0,0,0,0,0,0,0,1.7881,1.7881,1.7883,1.7883,1.7877,1.7877,1.7863,1.7863,0,0,0,0,0,0,0,0,0,0,0,1.7881,1.7881,1.7881,1.7883,1.7877,1.7877,1.7863,1.7869,0,0,0,0,0,0,0,0,0,0,1.7876,1.7872,1.7881,1.7881,1.7883,1.7877,1.7877,1.787,1.7869,1.7863,0,1.7857,0,1.786,1.7861,1.7861,0,0,0,1.7885,1.7872,1.7874,1.7881,1.7883,1.7877,1.788,1.7869,1.7869,1.7862,1.7857,1.7857,1.7859,1.7861,1.7861,1.782,1.7819,0,0,1.7885,1.7878,1.7874,1.7873,1.7875,1.788,1.788,1.7869,1.7863,1.7857,1.7856,1.7859,1.7861,1.7861,1.782,1.782,0,0,0,1.7885,1.7878,1.788,1.7873,1.7873,1.788,1.788,1.7864,1.7865,1.7856,1.7859,1.7861,1.7861,1.782,1.782,1.7799,0,0,0,1.7885,1.7878,1.788,1.7876,1.7873,1.7868,1.7875,1.7866,1.7865,1.7859,1.7861,1.7861,1.7821,1.782,1.78,1.7789,0,0,0,1.7883,1.7878,1.7876,1.7876,1.7873,1.7869,1.787,1.7866,1.7866,1.7861,1.7861,1.7821,1.782,1.7801,1.7791,1.7776,0,0,0,1.7878,1.7857,1.7876,1.7853,1.7873,1.7856,1.787,1.7857,1.7851,1.7861,1.7821,1.782,1.7802,1.7793,1.7778,1.7762,1.7755,0,0,1.7847,1.7853,1.784,1.7857,1.7835,1.7858,1.7832,1.7832,1.7838,1.7825,1.7824,1.78,1.7792,1.7777,1.772,1.7715,0,0,0,1.7828,1.7818,1.7814,1.7808,1.7808,1.7807,1.7812,1.7812,1.7802,1.783,1.7791,1.7786,1.7778,1.777,1.7766,1.7759,1.7817,1.7817,1.7817,1.7773,1.7782,1.7761,1.777,1.7764,1.7769,1.7765,1.7765,1.7776,1.7766,1.7762,1.7727,1.7718,1.7715,1.7707,1.7755,1.7755,1.7755,1.7755,1.7728,1.7716,1.7731,1.7716,1.7726,1.7713,1.7718,1.7725,1.7714,1.7731,1.7724,1.774,1.7709,1.7703,1.7754,1.7754,1.7754,1.7754,1.7754,1.7693,1.7689,1.769,1.7682,1.7675,1.7684,1.7673,1.7682,1.769,1.7683,1.768,1.768,1.7681,1.7681,1.7681,1.7681,1.7681,1.768,1.768,1.7656,1.7658,1.7648,1.7647,1.7644,1.7641,1.7647,1.7644,1.7643,1.7651,1.7651,1.7661,1.7704,1.7715,1.7679,1.7679,1.7679,1.7679,1.7679,1.7605,1.7618,1.7603,1.76,1.76,1.7592,1.7604,1.7597,1.7596,1.759,1.7603,1.7634,1.764,1.7643,1.7652,1.7602,1.7602,1.7602,1.7602,1.7575,1.758,1.7566,1.7561,1.7557,1.7567,1.7548,1.7552,1.7558,1.7558,1.7567,1.7579,1.7583,1.7587,1.7592,1.76,1.7537,1.7537,1.7537,1.7545,1.7549,1.7532,1.7539,1.7539,1.7539,1.7522,1.7515,1.7525,1.7535,1.7558,1.7561,1.7581,1.7587,1.7597,1.7604,1.7619,0,0]}]]